FW7308 Weather Reports


Display with metric or nautical units.
time (UTC)temp
F
wind
direction
speed
MPH
gust
MPH
rain 1hr
in
rain 24hr
in
rain mn
in
humidity
%
barometer
mb
20260905083238 57 316 2.0 2.0 0.00 0.00 0.00 99 1012.6
20260905082737 57 325 2.0 2.0 0.00 0.00 0.00 99 1012.4
20260905082236 56 318 2.0 2.0 0.00 0.00 0.00 99 1012.6
20260905081736 57 328 2.0 2.0 0.00 0.00 0.00 99 1012.6
20260905081235 57 322 2.0 2.0 0.00 0.00 0.00 99 1012.6
20260905080734 57 324 2.0 2.0 0.00 0.00 0.00 99 1012.6
20260905080235 57 321 2.0 2.0 0.00 0.00 0.00 99 1012.6
20260905075734 57 315 2.0 2.0 0.00 0.00 0.00 99 1012.6
20260905075234 57 319 1.0 1.0 0.00 0.00 0.00 99 1012.6
20260905074735 57 321 1.0 2.0 0.00 0.00 0.00 99 1012.6
20260905074234 57 319 2.0 2.0 0.00 0.00 0.00 99 1012.6
20260905073733 57 319 2.0 2.0 0.00 0.00 0.00 99 1012.6
20260905073232 57 320 2.0 2.0 0.00 0.00 0.00 99 1012.6
20260905072732 57 321 2.0 2.0 0.00 0.00 0.00 99 1012.6
20260905072233 58 319 2.0 2.0 0.00 0.00 0.00 99 1012.8
20260905071732 58 323 2.0 2.0 0.00 0.00 0.00 99 1013.0
20260905071236 58 316 2.0 2.0 0.00 0.00 0.00 99 1012.6
20260905070730 58 323 2.0 2.0 0.00 0.00 0.00 99 1013.0
20260905070231 58 321 2.0 2.0 0.00 0.00 0.00 99 1013.0
20260905065731 58 317 2.0 2.0 0.00 0.00 0.00 99 1013.0
20260905065230 58 325 2.0 2.0 0.00 0.00 0.00 99 1013.0
20260905064729 58 328 2.0 2.0 0.00 0.00 0.00 99 1013.0
20260905064230 59 322 1.0 2.0 0.00 0.00 0.00 99 1013.0
20260905063229 59 319 2.0 2.0 0.00 0.00 0.00 99 1013.0
20260905062729 59 322 1.0 2.0 0.00 0.00 0.00 99 1013.1
20260905062227 59 323 2.0 2.0 0.00 0.00 0.00 99 1013.1
20260905061728 59 320 1.0 2.0 0.00 0.00 0.00 99 1013.0
20260905061227 59 319 1.0 2.0 0.00 0.00 0.00 99 1013.3
20260905060726 60 323 2.0 2.0 0.00 0.00 0.00 99 1013.3
20260905060228 60 329 1.0 2.0 0.00 0.00 0.00 99 1013.3
20260905055727 60 321 2.0 2.0 0.00 0.00 0.00 98 1013.3
20260905055226 60 322 1.0 1.0 0.00 0.00 0.00 99 1013.1
20260905054725 60 325 1.0 1.0 0.00 0.00 0.00 98 1013.3
20260905053725 60 328 1.0 1.0 0.00 0.00 0.00 98 1013.3
20260905053224 60 319 1.0 1.0 0.00 0.00 0.00 98 1013.3
20260905052729 61 327 1.0 1.0 0.00 0.00 0.00 98 1013.3
20260905052225 61 327 2.0 2.0 0.00 0.00 0.00 98 1013.3
20260905051724 61 321 1.0 2.0 0.00 0.00 0.00 98 1013.3
20260905050722 61 325 1.0 2.0 0.00 0.00 0.00 98 1013.3
20260905050222 61 328 2.0 3.0 0.00 0.00 0.00 98 1013.3
20260905045723 61 328 2.0 2.0 0.00 0.00 0.00 97 1013.3
20260905045222 61 325 1.0 2.0 0.00 0.00 0.00 97 1013.3
20260905044721 61 325 1.0 2.0 0.00 0.00 0.00 97 1013.3
20260905044220 61 328 1.0 1.0 0.00 0.00 0.00 99 1013.3
20260905043721 61 321 1.0 1.0 0.00 0.00 0.00 99 1013.7
20260905043221 60 319 1.0 1.0 0.00 0.00 0.00 99 1013.3
20260905042720 60 323 1.0 2.0 0.00 0.00 0.00 99 1013.3
20260905042219 60 324 1.0 2.0 0.00 0.00 0.00 99 1013.3
20260905041720 60 323 1.0 1.0 0.00 0.00 0.00 99 1013.3
20260905041219 60 319 1.0 1.0 0.00 0.00 0.00 99 1013.3
20260905040719 60 325 2.0 2.0 0.00 0.00 0.00 99 1013.3
20260905040218 60 325 2.0 2.0 0.00 0.00 0.00 99 1013.3
20260905035821 60 319 1.0 1.0 0.00 0.00 0.00 99 1013.3
20260905035219 60 319 2.0 2.0 0.00 0.00 0.00 99 1013.7
20260905034719 60 323 2.0 2.0 0.00 0.00 0.00 99 1013.3
20260905034216 60 327 1.0 2.0 0.00 0.00 0.00 99 1013.3
20260905033718 60 319 2.0 2.0 0.00 0.00 0.00 99 1013.5
20260905033217 60 327 1.0 1.0 0.00 0.00 0.00 99 1013.3
20260905032716 60 321 2.0 2.0 0.00 0.00 0.00 99 1013.5
20260905032215 60 328 1.0 1.0 0.00 0.00 0.00 99 1013.5
20260905031746 61 319 1.0 1.0 0.00 0.00 0.00 99 1013.7
20260905031245 61 324 1.0 1.0 0.00 0.00 0.00 99 1013.3
20260905030745 61 325 1.0 1.0 0.00 0.00 0.00 99 1013.5
20260905030244 61 322 2.0 2.0 0.00 0.00 0.00 99 1013.3
20260905025745 61 328 2.0 2.0 0.00 0.00 0.00 99 1013.3
20260905025244 61 321 2.0 2.0 0.00 0.00 0.00 98 1013.5
20260905024743 61 320 2.0 2.0 0.00 0.00 0.00 98 1013.7
20260905024243 61 327 2.0 2.0 0.00 0.00 0.00 98 1013.7
20260905023846 62 319 2.0 2.0 0.00 0.00 0.00 97 1013.7
20260905023343 62 319 1.0 2.0 0.00 0.00 0.00 97 1013.7
20260905022744 62 319 2.0 2.0 0.00 0.00 0.00 96 1013.7
20260905022243 62 323 2.0 2.0 0.00 0.00 0.00 96 1013.8
20260905021740 62 324 2.0 2.0 0.00 0.00 0.00 96 1013.8
20260905021241 62 320 2.0 2.0 0.00 0.00 0.00 96 1013.7
20260905020741 62 321 2.0 2.0 0.00 0.00 0.00 96 1013.7
20260905020240 62 323 2.0 2.0 0.00 0.00 0.00 96 1014.0
20260905015739 62 322 2.0 2.0 0.00 0.00 0.00 96 1014.0
20260905015240 62 325 2.0 2.0 0.00 0.00 0.00 97 1013.7
20260905014739 62 324 2.0 2.0 0.00 0.00 0.00 97 1014.0
20260905014239 62 321 2.0 2.0 0.00 0.00 0.00 97 1014.0
20260905013738 62 323 2.0 2.0 0.00 0.00 0.00 97 1014.0
20260905013240 62 321 2.0 2.0 0.00 0.00 0.00 97 1014.0
20260905012739 62 321 2.0 2.0 0.00 0.00 0.00 97 1014.0
20260905012237 62 326 2.0 2.0 0.00 0.00 0.00 97 1014.0
20260905011737 62 324 2.0 2.0 0.00 0.00 0.00 97 1014.0
20260905011238 62 321 2.0 2.0 0.00 0.00 0.00 97 1013.8
20260905010737 62 320 2.0 2.0 0.00 0.00 0.00 97 1014.0
20260905010236 62 319 2.0 2.0 0.00 0.00 0.00 97 1014.0
20260905005839 62 321 2.0 2.0 0.00 0.00 0.00 97 1014.0
20260905005235 62 319 2.0 2.0 0.00 0.00 0.00 96 1014.0
20260905004736 62 321 2.0 2.0 0.00 0.00 0.00 96 1014.0
20260905004235 62 318 1.0 1.0 0.00 0.00 0.00 96 1014.0
20260905003839 62 321 1.0 1.0 0.00 0.00 0.00 96 1013.7
20260905003338 62 322 1.0 1.0 0.00 0.00 0.00 96 1014.0
20260905002735 63 323 1.0 1.0 0.00 0.00 0.00 96 1014.0
20260905002234 63 321 1.0 2.0 0.00 0.00 0.00 96 1014.0
20260905001733 63 319 1.0 2.0 0.00 0.00 0.00 95 1014.0
20260905001234 63 323 1.0 2.0 0.00 0.00 0.00 95 1014.0
20260905000733 63 321 1.0 2.0 0.00 0.00 0.00 95 1014.0
20260905000233 63 321 1.0 1.0 0.00 0.00 0.00 95 1014.0
20260904235832 64 322 1.0 1.0 0.00 0.00 0.00 94 1013.7
20260904235231 64 323 1.0 1.0 0.00 0.00 0.00 93 1013.7
20260904234734 64 325 0.0 1.0 0.00 0.00 0.00 93 1013.7
20260904234233 65 322 1.0 1.0 0.00 0.00 0.00 92 1013.7
20260904233734 65 322 0.0 1.0 0.00 0.00 0.00 91 1013.7
20260904233232 65 327 1.0 1.0 0.00 0.00 0.00 91 1013.3
20260904232731 66 323 0.0 1.0 0.00 0.00 0.00 90 1013.7
20260904232230 66 328 1.0 1.0 0.00 0.00 0.00 89 1013.7
20260904231729 66 0.0 0.0 0.00 0.00 0.00 90 1013.3
20260904231229 67 0.0 0.0 0.00 0.00 0.00 89 1013.3
20260904220827 72 323 1.0 1.0 0.00 0.00 0.00 76 1013.0
20260904220225 72 325 2.0 2.0 0.00 0.00 0.00 75 1013.3
20260904215725 73 319 1.0 1.0 0.00 0.00 0.00 76 1013.3
20260904215224 73 319 1.0 2.0 0.00 0.00 0.00 74 1013.3
20260904214722 73 326 2.0 3.0 0.00 0.00 0.00 73 1013.3
20260904214224 74 312 2.0 2.0 0.00 0.00 0.00 72 1013.3
20260904213723 74 312 3.0 5.0 0.00 0.00 0.00 71 1013.3
20260904213224 75 301 3.0 3.0 0.00 0.00 0.00 71 1013.3
20260904212724 74 325 1.0 1.0 0.00 0.00 0.00 72 1013.3
20260904212222 74 337 2.0 2.0 0.00 0.00 0.00 73 1013.3
20260904211721 73 346 0.0 1.0 0.00 0.00 0.00 73 1013.3
20260904211222 73 308 3.0 5.0 0.00 0.00 0.00 74 1013.3
20260904210721 74 324 4.0 5.0 0.00 0.00 0.00 71 1013.3
20260904210221 75 339 3.0 5.0 0.00 0.00 0.00 72 1013.3
20260904205720 75 295 6.0 8.0 0.00 0.00 0.00 70 1013.3
20260904205219 74 324 3.0 9.0 0.00 0.00 0.00 70 1013.3
20260904204720 75 298 3.0 3.0 0.00 0.00 0.00 71 1013.3
20260904204321 75 322 4.0 7.0 0.00 0.00 0.00 70 1013.1
20260904203819 75 315 3.0 5.0 0.00 0.00 0.00 71 1013.3
20260904203218 74 323 3.0 3.0 0.00 0.00 0.00 72 1013.3
20260904202720 73 340 2.0 2.0 0.00 0.00 0.00 74 1013.3
20260904202218 73 326 1.0 1.0 0.00 0.00 0.00 73 1013.3
20260904201717 74 325 1.0 2.0 0.00 0.00 0.00 72 1013.3
20260904201216 74 310 4.0 6.0 0.00 0.00 0.00 71 1013.3
20260904200717 74 329 2.0 3.0 0.00 0.00 0.00 70 1013.0
20260904200217 75 280 4.0 6.0 0.00 0.00 0.00 68 1013.3
20260904195716 75 322 2.0 5.0 0.00 0.00 0.00 66 1013.3
20260904195245 75 320 2.0 5.0 0.00 0.00 0.00 69 1013.3
20260904194746 74 344 3.0 5.0 0.00 0.00 0.00 70 1013.0
20260904194245 75 327 0.0 1.0 0.00 0.00 0.00 67 1013.3
20260904193745 75 308 4.0 6.0 0.00 0.00 0.00 65 1013.3
20260904193244 77 332 4.0 6.0 0.00 0.00 0.00 64 1013.3
20260904192743 76 287 5.0 6.0 0.00 0.00 0.00 65 1013.1
20260904192244 76 326 6.0 8.0 0.00 0.00 0.00 64 1013.3
20260904191743 0 0.0 0.0 0.00 0.00 0.00 1013.3
20260904191243 0 0.0 0.0 0.00 0.00 0.00 1013.3
20260904190742 0 0.0 0.0 0.00 0.00 0.00 1013.3
20260904190243 0 0.0 0.0 0.00 0.00 0.00 1013.3
20260904185742 75 291 3.0 5.0 0.00 0.00 0.00 66 1013.3
20260904185241 75 291 3.0 5.0 0.00 0.00 0.00 66 1013.3
20260904184742 75 313 3.0 3.0 0.00 0.00 0.00 66 1013.7
20260904184242 75 297 3.0 3.0 0.00 0.00 0.00 66 1013.7
20260904183741 74 343 2.0 2.0 0.00 0.00 0.00 65 1013.7
20260904183240 75 346 3.0 5.0 0.00 0.00 0.00 65 1013.7
20260904182739 75 334 1.0 1.0 0.00 0.00 0.00 65 1013.3
20260904182240 75 337 9.0 14.0 0.00 0.00 0.00 63 1013.7
20260904181740 75 287 3.0 6.0 0.00 0.00 0.00 65 1013.7
20260904181239 75 336 6.0 11.0 0.00 0.00 0.00 63 1013.7
20260904180738 76 339 9.0 11.0 0.00 0.00 0.00 61 1013.7
20260904180239 76 336 5.0 11.0 0.00 0.00 0.00 62 1013.8
20260904175739 76 312 1.0 2.0 0.00 0.00 0.00 63 1013.7
20260904175239 0 0.0 0.0 0.00 0.00 0.00 1013.7
20260904174739 75 333 9.0 13.0 0.00 0.00 0.00 60 1013.7
20260904174238 75 333 9.0 13.0 0.00 0.00 0.00 60 1013.7
20260904173737 0 0.0 0.0 0.00 0.00 0.00 1013.3
20260904173237 0 0.0 0.0 0.00 0.00 0.00 1013.3
20260904172735 0 0.0 0.0 0.00 0.00 0.00 1013.3
20260904172236 0 0.0 0.0 0.00 0.00 0.00 1013.3
20260904171736 77 281 4.0 6.0 0.00 0.00 0.00 60 1013.3
20260904171235 77 281 4.0 6.0 0.00 0.00 0.00 60 1013.7
20260904170734 76 340 7.0 11.0 0.00 0.00 0.00 62 1013.3
20260904170235 76 281 7.0 9.0 0.00 0.00 0.00 65 1013.7
20260904165233 0 0.0 0.0 0.00 0.00 0.00 1013.7
20260904164732 76 12 4.0 6.0 0.00 0.00 0.00 64 1013.7
20260904164234 76 12 4.0 6.0 0.00 0.00 0.00 64 1013.8
20260904163733 77 331 5.0 7.0 0.00 0.00 0.00 64 1013.7
20260904163232 77 6 6.0 10.0 0.00 0.00 0.00 61 1013.7
20260904162731 77 6 6.0 10.0 0.00 0.00 0.00 61 1013.8
20260904162232 76 328 2.0 2.0 0.00 0.00 0.00 65 1013.8
20260904161732 76 356 10.0 11.0 0.00 0.00 0.00 63 1014.0
20260904161231 75 336 3.0 3.0 0.00 0.00 0.00 65 1013.8
20260904160730 75 336 3.0 3.0 0.00 0.00 0.00 65 1014.0
20260904160231 76 316 2.0 2.0 0.00 0.00 0.00 64 1013.8
20260904155732 75 349 3.0 5.0 0.00 0.00 0.00 66 1014.0
20260904155231 75 323 10.0 15.0 0.00 0.00 0.00 67 1014.0
20260904154831 76 315 6.0 7.0 0.00 0.00 0.00 68 1014.0
20260904154230 75 2 3.0 3.0 0.00 0.00 0.00 68 1014.0
20260904153729 75 265 3.0 6.0 0.00 0.00 0.00 68 1014.0
20260904153228 74 317 5.0 8.0 0.00 0.00 0.00 68 1014.0
20260904152727 74 307 2.0 2.0 0.00 0.00 0.00 70 1014.0
20260904152229 75 288 4.0 5.0 0.00 0.00 0.00 71 1014.0
20260904151728 74 354 3.0 5.0 0.00 0.00 0.00 72 1014.4
20260904151227 74 337 8.0 9.0 0.00 0.00 0.00 72 1014.2
20260904150726 75 356 3.0 5.0 0.00 0.00 0.00 74 1014.4
20260904150227 73 326 2.0 3.0 0.00 0.00 0.00 76 1014.4
20260904145726 73 339 2.0 3.0 0.00 0.00 0.00 76 1014.2
20260904145226 74 329 0.0 3.0 0.00 0.00 0.00 76 1014.0
20260904144725 73 327 2.0 3.0 0.00 0.00 0.00 78 1014.4
20260904144226 74 311 3.0 6.0 0.00 0.00 0.00 76 1014.2
20260904143725 73 321 1.0 3.0 0.00 0.00 0.00 78 1014.2
20260904143224 73 327 1.0 1.0 0.00 0.00 0.00 82 1014.4
20260904142723 73 335 5.0 7.0 0.00 0.00 0.00 79 1014.4
20260904142227 73 333 2.0 3.0 0.00 0.00 0.00 82 1014.4
20260904141824 74 320 2.0 6.0 0.00 0.00 0.00 79 1014.4
20260904141224 73 331 1.0 2.0 0.00 0.00 0.00 81 1014.4
20260904140723 73 331 1.0 2.0 0.00 0.00 0.00 81 1014.4
20260904140223 71 325 1.0 2.0 0.00 0.00 0.00 85 1014.4
20260904135723 72 304 3.0 3.0 0.00 0.00 0.00 85 1014.4
20260904135222 72 355 5.0 7.0 0.00 0.00 0.00 84 1014.4
20260904134721 71 329 0.0 1.0 0.00 0.00 0.00 86 1014.5
20260904134222 71 334 1.0 1.0 0.00 0.00 0.00 86 1014.4
20260904133721 71 334 1.0 1.0 0.00 0.00 0.00 86 1014.4
20260904133221 71 326 3.0 3.0 0.00 0.00 0.00 87 1014.4
20260904132720 70 0.0 0.0 0.00 0.00 0.00 87 1014.4
20260904132221 69 326 1.0 1.0 0.00 0.00 0.00 87 1014.4
20260904131720 69 346 4.0 5.0 0.00 0.00 0.00 87 1014.4
20260904131219 69 335 4.0 5.0 0.00 0.00 0.00 88 1014.0
20260904130721 69 333 0.0 1.0 0.00 0.00 0.00 90 1014.4
20260904125720 69 338 2.0 3.0 0.00 0.00 0.00 90 1014.4
20260904125218 68 327 3.0 5.0 0.00 0.00 0.00 89 1014.4
20260904124717 67 334 4.0 6.0 0.00 0.00 0.00 90 1014.4
20260904124219 68 332 2.0 2.0 0.00 0.00 0.00 90 1014.2
20260904123718 67 328 1.0 1.0 0.00 0.00 0.00 92 1014.4
20260904123217 67 330 2.0 2.0 0.00 0.00 0.00 92 1014.4
20260904122716 67 342 3.0 5.0 0.00 0.00 0.00 91 1014.4
20260904122217 67 331 0.0 1.0 0.00 0.00 0.00 92 1014.0
20260904121717 66 341 3.0 5.0 0.00 0.00 0.00 92 1014.4
20260904121246 66 331 1.0 2.0 0.00 0.00 0.00 94 1014.0
20260904120746 65 337 2.0 3.0 0.00 0.00 0.00 96 1014.0
20260904115245 65 0.0 0.0 0.00 0.00 0.00 99 1014.0
20260904114744 64 0.0 0.0 0.00 0.00 0.00 99 1014.0
20260904114345 62 0.0 0.0 0.00 0.00 0.00 99 1014.0
20260904113745 61 0.0 0.0 0.00 0.00 0.00 99 1014.0
20260904113343 60 0.0 0.0 0.00 0.00 0.00 99 1014.0
20260904112742 60 0.0 0.0 0.00 0.00 0.00 99 1013.8
20260904112241 59 0.0 0.0 0.00 0.00 0.00 99 1014.0
20260904111743 59 0.0 0.0 0.00 0.00 0.00 99 1013.7
20260904111242 59 0.0 0.0 0.00 0.00 0.00 99 1014.0
20260904110741 59 0.0 0.0 0.00 0.00 0.00 99 1013.7
20260904110242 59 0.0 0.0 0.00 0.00 0.00 99 1013.7
20260904105741 59 333 2.0 2.0 0.00 0.00 0.00 99 1013.7
20260904105242 59 327 2.0 2.0 0.00 0.00 0.00 99 1013.7
20260904104239 58 329 2.0 3.0 0.00 0.00 0.00 99 1013.7
20260904103740 58 325 2.0 2.0 0.00 0.00 0.00 99 1013.7
20260904102739 58 323 1.0 1.0 0.00 0.00 0.00 99 1013.7
20260904102239 58 327 2.0 2.0 0.00 0.00 0.00 99 1013.7
20260904101739 58 329 2.0 2.0 0.00 0.00 0.00 99 1013.5
20260904101238 58 327 1.0 1.0 0.00 0.00 0.00 99 1013.3
20260904100737 58 325 1.0 1.0 0.00 0.00 0.00 99 1013.3
20260904100236 58 326 0.0 1.0 0.00 0.00 0.00 99 1013.5
20260904095737 58 323 2.0 2.0 0.00 0.00 0.00 99 1013.3
20260904095237 58 325 2.0 2.0 0.00 0.00 0.00 99 1013.3
20260904094736 59 317 2.0 2.0 0.00 0.00 0.00 99 1013.3
20260904094237 58 323 2.0 2.0 0.00 0.00 0.00 99 1013.3
20260904093736 58 321 1.0 1.0 0.00 0.00 0.00 99 1013.3
20260904093235 59 322 1.0 1.0 0.00 0.00 0.00 99 1013.3
20260904092734 59 321 2.0 2.0 0.00 0.00 0.00 99 1013.3
20260904092234 59 323 2.0 2.0 0.00 0.00 0.00 99 1013.3
20260904091735 59 326 2.0 2.0 0.00 0.00 0.00 99 1013.3
20260904091234 59 331 3.0 3.0 0.00 0.00 0.00 99 1013.3
20260904090733 59 318 2.0 3.0 0.00 0.00 0.00 99 1013.3
20260904090232 59 332 2.0 2.0 0.00 0.00 0.00 99 1013.3
20260904085733 59 319 2.0 2.0 0.00 0.00 0.00 99 1013.3
20260904085233 59 325 2.0 2.0 0.00 0.00 0.00 99 1013.3
20260904084732 59 323 2.0 2.0 0.00 0.00 0.00 99 1013.3
20260904084231 59 319 2.0 2.0 0.00 0.00 0.00 99 1013.3
20260904083732 59 320 2.0 2.0 0.00 0.00 0.00 99 1013.3